Location: Minneapolis
(45.0000°N, 93.0000°W)
Time: 10:35:05
(UTC-05:00)

Vanguard 2 - Visible Passes

Search period start: 22 June 2018 00:00
Search period end: 02 July 2018 00:00
Orbit: 553 x 2939 km, 32.9° (Epoch: 21 June)

Date Brightness Start Highest point End Pass type
(mag) Time Alt. Az. Time Alt. Az. Time Alt. Az.
22 Jun 9.9 03:13:39 13° SSE 03:13:52 13° SSE 03:16:25 10° SE visible
23 Jun 9.6 03:30:14 16° S 03:31:49 17° SSE 03:35:27 10° SE visible
24 Jun 9.4 03:46:44 16° SSW 03:49:45 21° S 03:53:52 10° SE visible
25 Jun 10.1 02:01:49 14° SE 02:01:49 14° SE 02:03:28 10° SE visible
25 Jun 9.2 04:03:11 14° SW 04:07:40 24° S 04:12:02 10° ESE visible
26 Jun 9.8 02:18:11 20° SSE 02:18:11 20° SSE 02:22:16 10° ESE visible
26 Jun 9.0 04:19:33 11° SW 04:25:33 26° S 04:30:02 10° SE visible
27 Jun 9.6 02:34:27 25° S 02:35:05 25° S 02:40:39 10° ESE visible
27 Jun 9.0 04:37:00 10° WSW 04:43:25 27° S 04:47:54 10° SE visible
28 Jun 10.5 00:49:13 12° ESE 00:49:13 12° ESE 00:49:57 10° ESE visible
28 Jun 9.4 02:50:34 26° SSW 02:53:02 29° S 02:58:48 10° ESE visible
29 Jun 10.1 01:05:09 20° SE 01:05:09 20° SE 01:08:43 10° ESE visible
29 Jun 9.2 03:06:28 22° SW 03:10:58 32° S 03:16:49 10° ESE visible
29 Jun 11.1 23:19:27 - ESE 23:19:27 - ESE 23:03:08 10° S visible
30 Jun 9.8 01:20:44 29° SSE 01:20:44 29° SSE 01:27:07 10° ESE visible
30 Jun 9.1 03:22:00 16° SW 03:28:52 34° S 03:34:44 10° ESE visible
30 Jun 10.7 23:18:30 10° SSW 23:34:16 14° ESE 23:35:48 10° ESE visible
01 Jul 9.6 01:35:26 31° SSW 01:37:52 34° S 01:45:19 10° ESE visible
01 Jul 9.1 03:37:43 10° WSW 03:46:44 35° S 03:52:34 10° SE visible
01 Jul 10.3 23:34:40 10° SSW 23:46:09 26° SSE 23:54:39 10° ESE visible
